Location: Newark
(48.4472°N, 1.4892°E)
Time: 23:31:17
(UTC+00:00)

OTV 5 (USA 277) - Visible Passes

Search period start: 22 October 2019 00:00
Search period end: 01 November 2019 00:00
Orbit: 310 x 324 km, 54.5° (Epoch: 17 October)

Date Brightness Start Highest point End Pass type
(mag) Time Alt. Az. Time Alt. Az. Time Alt. Az.
28 Oct ? 18:38:14 10° SSW 18:38:41 13° SSW 18:38:41 13° SSW visible
29 Oct ? 18:52:21 10° SW 18:53:11 18° SW 18:53:11 18° SW visible
30 Oct ? 17:33:34 10° S 17:35:33 18° SE 17:36:39 15° ESE visible
30 Oct ? 19:06:55 10° WSW 19:07:33 15° WSW 19:07:33 15° WSW visible
31 Oct ? 17:47:19 10° SW 17:49:55 41° SE 17:50:56 27° E visible
31 Oct ? 19:21:44 10° W 19:21:50 11° W 19:21:50 11° W visible
